Other Public Products
Issued by NWS Grand Forks, ND

Home | Current Version | Previous Version | Graphics & Text | Print | Product List | Glossary On
Versions: 1 2 3 4 5 6 7 8 9 10 11 12 13 14 15 16 17 18 19 20 21 22 23 24 25 26 27 28 29 30 31 32 33 34 35 36 37 38 39 40 41 42 43 44 45 46 47 48 49 50
053
FPUS83 KFGF 052310
OPUFGF
PRAIRIE TO PINES WEATHER ROUNDUP
NATIONAL WEATHER SERVICE EASTERN NORTH DAKOTA/GRAND FORKS ND
500 PM CST FRI FEB 05 2016

 **SATELLITE DATA USED TO AUGMENT SKY COVER AT AUTOMATED STATIONS**
 *****  WEATHER ACROSS EASTERN NORTH DAKOTA  *****

CITY           SKY/WX    TMP DP  RH WIND       PRES   REMARKS
GRAND FORKS    PTCLDY    28  19  69 CALM      30.13R
GRAND FORKS AF CLEAR     28  19  68 W6        30.13R WCI  21
GRAND CITY NWS   N/A     25 N/A N/A MISG        N/A
BUXTON           N/A     29  22  74 W3          N/A
DEVILS LAKE    CLEAR     24  20  84 SW6       30.10S WCI  17
FARGO          CLEAR     28  21  75 W5        30.14S WCI  23
WAHPETON ARPT  CLEAR     23  21  93 S6        30.14F WCI  16
$$

 *****  WEATHER ACROSS CENTRAL AND WESTERN NORTH DAKOTA  *****

CITY           SKY/WX    TMP DP  RH WIND       PRES   REMARKS
JAMESTOWN      CLEAR     32  17  54 NW6       30.11S
BISMARCK       CLEAR     43  24  47 W9        30.12F
MINOT          CLOUDY    39  21  48 SW8       30.05F
MINOT AFB      CLEAR     37  24  59 CALM      30.04F
GARRISON         N/A     38  22  52 W12       30.07F
WILLISTON      CLEAR     40  26  57 SW7       30.05F
DICKINSON      CLEAR     38  21  50 W12       30.07F
HETTINGER      CLEAR     41  19  41 W13       30.13F
$$

 *****  OTHER OBSERVATIONS NORTHEAST NORTH DAKOTA  *****

CITY           SKY/WX    TMP DP  RH WIND       PRES   REMARKS
WALHALLA       FAIR      25  19  80 W3        30.11S
LANGDON        MOCLDY    23  18  80 SW8       30.07F WCI  14
CAVALIER       FAIR      21  16  79 SE3       30.12F
GRAFTON        FAIR      19  16  86 S5        30.15S WCI  13
CANDO          NOT AVBL
FORT TOTTEN      N/A     27  19  70 SW5       29.95S WCI  22
ROLLA          FAIR      25  18  74 SW13      30.04F WCI  13
RUGBY          FAIR      27  18  69 S5        30.07S WCI  21
 ***** THE ABOVE OBSERVATIONS ARE NON NWS ARE NOT QUALITY
        CONTROLLED AND MAY MIS-REPORT RAIN FOR SNOW...
$$

 *****  OTHER OBSERVATIONS SOUTHEAST NORTH DAKOTA *****

CITY           SKY/WX    TMP DP  RH WIND       PRES   REMARKS
COOPERSTOWN    NOT AVBL
VALLEY CITY    FAIR      28  23  80 W8        30.14S WCI  20
OAKES          FAIR      32  21  64 NW10      30.14S WCI  24
GWINNER        NOT AVBL
SHEYENNE NWR     N/A     32  21  64 NW7       29.95S
BUFFALO          N/A     30  18  61 NW8         N/A  WCI  22
WYNDMERE         N/A     18  16  93 W7          N/A  WCI   8
 ***** THE ABOVE OBSERVATIONS ARE NON NWS ARE NOT QUALITY
       CONTROLLED AND MAY MIS-REPORT RAIN FOR SNOW...
$$

  *****  WEATHER ACROSS NORTHERN MINNESOTA  *****

CITY           SKY/WX    TMP DP  RH WIND       PRES   REMARKS
FLAG ISLAND    CLOUDY    19  16  86 CALM      30.07S
WARROAD        CLOUDY    21  16  79 SW6       30.09S WCI  14
ROSEAU         CLOUDY    23  16  74 SW5       30.10S WCI  17
HALLOCK        CLOUDY    21  18  86 CALM      30.12S
THF RVR FALLS  PTCLDY    21  16  79 W8        30.13R WCI  12
HALSTAD        NOT AVBL
FOSSTON        CLEAR     21  16  79 SW5       30.12R WCI  15
BAUDETTE       CLOUDY    23  14  68 N3        30.07R
WASKISH        CLOUDY    21  18  86 SW8       30.09S WCI  12
CROOKSTON      CLEAR     21  18  86 CALM      30.15R
$$
  *****  WEATHER ACROSS CENTRAL AND WEST MINNESOTA  *****

CITY           SKY/WX    TMP DP  RH WIND       PRES   REMARKS
BEMIDJI        CLOUDY    25  20  81 W8        30.07S WCI  16
PARK RAPIDS    CLOUDY    27  21  78 SW8       30.08F WCI  19
WADENA         CLOUDY    25  19  80 W7        30.11F WCI  17
DETROIT LAKES  CLOUDY    27  23  86 W6        30.11F WCI  20
MOORHEAD       CLEAR     27  21  80 CALM      30.14F
FERGUS FALLS   CLOUDY    27  21  80 CALM      30.17S
ELBOW LAKE     CLOUDY    25  22  91 W3        30.15F FOG
MORRIS MN      CLOUDY    28  25  86 NW6       30.15S WCI  22
STAPLES        CLOUDY    25  18  74 SW6       30.13S WCI  18
WHEATON        CLEAR     32  27  80 NW5       30.17S
$$
  *****  WEATHER ELSEWHERE ACROSS MINNESOTA  *****

CITY           SKY/WX    TMP DP  RH WIND       PRES   REMARKS
DULUTH         CLOUDY    25  11  55 SW17G25   30.09S WCI  12
INTRNTL FALLS  CLOUDY    25  15  66 W8        30.07S WCI  16
ELY            CLOUDY    23  14  68 SW5       30.06S WCI  17
CLOQUET        CLOUDY    25  12  58 SW9G18    30.11S WCI  15
BRAINERD       CLOUDY    26  15  63 SW8       30.13S WCI  18
HIBBING        CLOUDY    24  13  62 S3        30.07F
ALEXANDRIA     CLOUDY    25  19  78 W7        30.14R WCI  17
SAINT CLOUD    CLOUDY    24  16  71 S8        30.17S WCI  15
MINNEAPOLIS    FLURRIES  26  16  65 SW12      30.23S WCI  16
$$

  *****  WEATHER ACROSS SOUTH DAKOTA  *****

CITY           SKY/WX    TMP DP  RH WIND       PRES   REMARKS
SIOUX FALLS    CLOUDY    30  26  85 S3        30.16S
BROOKINGS      CLOUDY    28  23  81 NW7       30.15R WCI  21
WATERTOWN      CLEAR     29  23  78 NW7       30.14R WCI  22
HURON          CLOUDY    34  30  85 NW3       30.18S
SISSETON         N/A     33  26  75 NW6       30.14S
ABERDEEN       CLEAR     39  21  48 NW12      30.17R
MITCHELL       CLOUDY    33  30  88 N10       30.20R WCI  25
PIERRE         CLEAR     38  26  62 W13       30.18S
MOBRIDGE       CLEAR     41  22  46 NW8       30.13F
RAPID CITY     CLEAR     40  22  48 N13       30.18S
$$

  *****  SOME WEATHER IN NEARBY STATES *****

CITY           SKY/WX    TMP DP  RH WIND       PRES   REMARKS
GLASGOW MT     CLOUDY    39  27  62 SW10      30.02F
GREAT FALLS MT SUNNY     47  23  38 SW22G33   30.08S
CHEYENNE WY    SUNNY     30  12  47 NW10      30.21F WCI  21
SCOTTSBLUFF NE SUNNY     32  19  58 W10       30.27R WCI  24
OMAHA NE       CLOUDY    31  28  89 S8        30.25R FOG     WCI  23
DES MOINES IA  LGT SNOW  30  20  66 S10       30.29S WCI  21
DAVENPORT IA   CLOUDY    29  18  63 CALM      30.34F
CHICAGO IL     CLOUDY    31  20  63 W12       30.36R WCI  22
EAU CLAIRE WI  MOCLDY    22  11  62 S7        30.25S WCI  13
LA CROSSE WI   CLOUDY    26  15  63 S12       30.29F WCI  16
$$

  *****  SOME NATIONAL WEATHER *****

CITY           SKY/WX    TMP DP  RH WIND       PRES   REMARKS
LA GUARDIA NY  PTCLDY    39  17  41 NW18G26   30.22R
RALEIGH NC     PTCLDY    43  18  36 CALM      30.36R
ATLANTA GA     PTCLDY    46  16  30 NW10      30.34R
NEW ORLEANS LA PTCLDY    54  18  24 NE3       30.38F
OKLAHOMA CITY  CLOUDY    52  25  35 SE13      30.22S
ALBUQUERQUE NM SUNNY     43   5  20 N14       30.36S
SALT LAKE CITY MOSUNNY   39  23  52 CALM      30.53S
LOS ANGELES CA SUNNY     71  32  23 W9        30.24F
BOISE ID       SUNNY     47  36  65 S7        30.47S
SEATTLE WA     CLOUDY    49  41  74 S6        30.01F
$$

*** WEATHER ACROSS MANITOBA...SASKATCHEWAN AND ONTARIO ***
                ***ONTARIO***

CITY           SKY/WX    TMP DP  RH WIND       PRES   REMARKS
GERALDTON      FLURRIES  12   7  79 W5        30.10F WCI   4
THUNDER BAY    LGT SNOW  21  18  86 W3        30.13F
SIOUX LOOKOUT  LGT SNOW  12   9  85 S3        30.04F
TORONTO        MOCLDY    32  18  55 W10       30.29R WCI  24
BIG TROUT LK   LGT SNOW  -6 -11  77 SW5       30.03F WCI -17
PICKLE LAKE    FLURRIES   7   1  78 SW6       30.00F WCI  -3
DRYDEN         CLOUDY    16  12  86 SW2       30.03S
KENORA         FLURRIES  16  12  86 S3        30.05S
$$
                *** MANITOBA***

CITY           SKY/WX    TMP DP  RH WIND       PRES   REMARKS
BRANDON        MOCLDY    19  14  79 SW7       30.03F WCI  10
DAUPHIN        CLOUDY    21  16  79 SE6       30.03F WCI  14
ISLAND LAKE    NOT AVBL
PILOT MOUND      N/A     19  16  86 S6          N/A  WCI  11
THE PAS        FLURRIES  10   5  79 E7        30.06R WCI   0
THOMPSON       CRYSTALS -13 -22  64 N6        30.15R WCI -27
WINNIPEG       CLOUDY    16  12  86 SW3       30.11F
LYNN LAKE      CLEAR    -13 -20  70 E6        30.06F WCI -27
CHURCHILL      CRYSTALS -31 -40  61 W9        30.24R WCI -53
GILLAM         CLEAR    -22 -31  63 N8        30.18R WCI -41
$$
                ***SASKATCHEWAN***

CITY           SKY/WX    TMP DP  RH WIND       PRES   REMARKS
ESTEVAN        MOCLDY    34  25  69 SW10      30.00F
KINDERSLEY     MOCLDY    30  27  86 S13       29.80F WCI  20
LLOYDMINSTER   MOCLDY    28  21  74 S10       29.72F WCI  19
PRINCE ALBERT  CLOUDY    19  16  86 SE7       29.89F WCI  10
REGINA         PTCLDY    36  27  69 S8        29.94F
YORKTON        PTCLDY    21  16  79 CALM      29.98S   C1F1C2F2C3F3C4F4C5F5C6F6C7F7C8F8C9F9CaFaCbFbCcFcCdFdCe!



USA.gov is the U.S. government's official web portal to all federal, state and local government web resources and services.